LogID,LogEntryDate,LogEntryTime,LogEntrySeconds,01_LogMark,AFR,STFT,CurrentLTFT,IdleLTFT,CruiseLTFT,Load,O2Sensor2,IPW,AFRMAP,LoadTiming,TimingAdv,KnockSum,RPM,Baro,MAP,Boost,WGDC_Active,MAF,IDC,InVVTtarget,APP,ExVVTtarget,InVVTactual,ExVVTactual,TPS,IAT,WGDCCorr,Speed,Battery,ECT,MAT,MAPCalcs,IMAPCalcs,MAFCalcs,ChosenCalc,Custom
1,2024-06-28,04:56:24.87328,0.3335,0,0,0,-12.5,-12.5,-3.125,9.375,,0,,9.375,-10,0,2843.75,15.08392496,2.9910939,-12.09283106,0,1.607856,0,10,,0,9.84375,0.15625,13.7254901960784,69.8,0,42.262,,181.4,93.2,9.375,0,10.9375,9.375,
2,2024-06-28,04:56:24.92018,0.37686,0,18.5,0,-12.5,-12.5,-3.125,9.375,,0,,9.375,-10,0,2828.125,15.08392496,2.9910939,-12.09283106,0,1.607856,0,10,,0,9.84375,0.15625,13.7254901960784,69.8,0,42.262,,181.4,93.2,9.375,0,10.9375,9.375,
3,2024-06-28,04:56:24.93577,0.39222,0,18.5,0,-12.5,-12.5,-3.125,9.375,,0,,9.375,-10,0,2828.125,15.08392496,2.9910939,-12.09283106,0,1.607856,0,10,,0,9.84375,0.15625,13.7254901960784,69.8,0,42.262,,181.4,93.2,9.375,0,9.375,9.375,
4,2024-06-28,04:56:24.96706,0.42203,0,18.5,0,-12.5,-12.5,-3.125,9.375,,0,,9.375,-10,0,2828.125,15.08392496,2.9910939,-12.09283106,0,1.607856,0,10,,0,9.84375,0.3125,13.7254901960784,69.8,0,42.262,,181.4,93.2,9.375,0,9.375,9.375,
5,2024-06-28,04:56:25.01390,0.47685,0,18.5,0,-12.5,-12.5,-3.125,9.375,,0,,9.375,-10,0,2820.3125,15.08392496,2.9910939,-12.09283106,0,1.588248,0,10,,0,9.84375,0.3125,14.1176470588235,69.8,0,42.262,,181.4,93.2,9.375,0,7.8125,9.375,
6,2024-06-28,04:56:25.04514,0.4954,0,18.5,0,-12.5,-12.5,-3.125,9.375,,0,,9.375,-10,0,2820.3125,15.08392496,2.9910939,-12.09283106,0,1.588248,0,10,,0,9.84375,0.3125,14.1176470588235,69.8,0,41.019,,181.4,93.2,9.375,0,9.375,9.375,
7,2024-06-28,04:56:25.09202,0.54319,0,18.5,0,-12.5,-12.5,-3.125,9.375,,0,,9.375,-10,0,2820.3125,15.08392496,3.0875808,-11.99634416,0,1.588248,0,10,,0,9.84375,0.3125,14.1176470588235,69.8,0,41.019,,181.4,93.2,9.375,0,10.9375,9.375,
8,2024-06-28,04:56:25.12328,0.57922,0,18.5,0,-12.5,-12.5,-3.125,9.375,,0,,9.375,-10,0,2812.5,15.08392496,3.0875808,-11.99634416,0,1.588248,0,10,,0,9.84375,0.3125,13.7254901960784,69.8,0,41.019,,181.4,93.2,9.375,0,10.9375,9.375,
9,2024-06-28,04:56:25.20140,0.65237,0,18.5,0,-12.5,-12.5,-3.125,9.375,,0,,9.375,-10,0,2804.6875,15.08392496,2.9910939,-12.09283106,0,1.607856,0,10,,0,9.84375,0.3125,13.7254901960784,69.8,0,41.019,,181.4,93.2,9.375,0,10.9375,9.375,
10,2024-06-28,04:56:25.24827,0.69932,0,18.5,0,-12.5,-12.5,-3.125,9.375,,0,,9.375,-10,0,2796.875,15.08392496,2.9910939,-12.09283106,0,1.607856,0,10,,0,9.84375,0.15625,13.7254901960784,69.8,0,41.019,,181.4,93.2,9.375,0,10.9375,9.375,
11,2024-06-28,04:56:25.29518,0.75074,0,18.5,0,-12.5,-12.5,-3.125,9.375,,0,,9.375,-10,0,2773.4375,15.08392496,2.9910939,-12.09283106,0,1.66668,0,10,,0,9.84375,0.15625,13.7254901960784,69.8,0,41.019,,181.4,93.2,9.375,0,9.375,9.375,
12,2024-06-28,04:56:25.35765,0.81337,0,18.5,0,-12.5,-12.5,-3.125,9.375,,0,,9.375,-10,0,2710.9375,15.08392496,2.9910939,-12.09283106,0,1.66668,0,10,,0,9.6875,0.15625,13.7254901960784,69.8,0,41.019,,181.4,93.2,9.375,0,10.9375,9.375,
13,2024-06-28,04:56:25.45140,0.90162,0,18.5,0,-12.5,-12.5,-3.125,9.375,,0,,9.375,-10,0,2617.1875,15.08392496,2.9910939,-12.09283106,0,1.56864,0,10,,0,9.6875,0.15625,13.7254901960784,69.8,0,41.019,,181.4,93.2,9.375,0,10.9375,9.375,
14,2024-06-28,04:56:25.54515,1.00866,0,18.5,0,-12.5,-12.5,-3.125,9.375,,0,,9.375,-5,0,2500,15.08392496,2.9910939,-12.09283106,0,1.56864,0,19.375,,-14.375,9.84375,-0.15625,65.0980392156863,69.8,0,41.019,,181.4,93.2,92.1875,0,67.1875,62.5,
15,2024-06-28,04:56:25.70139,1.15233,0,18.5,0,-12.5,-12.5,-3.125,62.5,,2.9,,68.75,36,0,2671.875,15.08392496,12.8327577,-2.25116726,0,2.05884,6.45703125,19.375,,-14.375,9.84375,-0.15625,65.0980392156863,69.8,0,39.776,,181.4,93.2,48.4375,43.75,3.125,43.75,
16,2024-06-28,04:56:25.82640,1.28862,0,18.5,0,-3.125,-12.5,-3.125,35.9375,,1.4,,26.5625,3,0,3250,15.08392496,12.8327577,-2.25116726,0,2.05884,3.79166666666667,10,,0,15.3125,-12.8125,65.0980392156863,69.8,0,39.776,,181.4,93.2,14.0625,0,3.125,14.0625,
17,2024-06-28,04:56:25.96703,1.42848,0,18.5,0,-3.125,-12.5,-3.125,14.0625,,1.3,,12.5,7,0,3117.1875,15.08392496,2.894607,-12.18931796,0,1.529424,3.376953125,10,,0,15.3125,-12.8125,12.5490196078431,69.8,0,39.776,,181.4,93.2,9.375,0,4.6875,7.8125,
18,2024-06-28,04:56:26.09205,1.54139,0,14,0,-3.125,-12.5,-3.125,7.8125,,1.2,,6.25,12,0,3062.5,15.08392496,2.894607,-12.18931796,0,1.529424,3.0625,10,,0,9.6875,0.3125,12.5490196078431,69.8,0,39.776,,181.4,93.2,9.375,0,6.25,6.25,
19,2024-06-28,04:56:26.21702,1.66857,0,11.3,0,-12.5,-12.5,-3.125,6.25,,1.2,,6.25,16,0,3007.8125,15.08392496,2.7016332,-12.38229176,0,1.431384,3.0078125,10,,0,9.6875,0.3125,12.5490196078431,69.8,0,39.776,,181.4,93.2,9.375,0,4.6875,6.25,
20,2024-06-28,04:56:26.27956,1.73867,0,11.2,0,-12.5,-12.5,-3.125,6.25,,1.2,,6.25,20,0,3062.5,15.08392496,2.7016332,-12.38229176,0,1.431384,3.0625,10,,0,9.6875,0.15625,13.7254901960784,69.8,0,39.776,,181.4,93.2,9.375,0,9.375,6.25,
21,2024-06-28,04:56:26.38892,1.84207,0,11.2,0,-12.5,-12.5,-3.125,6.25,,0,,6.25,-10,0,3171.875,15.08392496,2.894607,-12.18931796,0,1.588248,0,10,,0,9.6875,0.15625,13.7254901960784,69.8,0,38.533,,181.4,93.2,10.9375,0,4.6875,7.8125,
22,2024-06-28,04:56:26.46703,1.92266,0,12,0,-12.5,-12.5,-3.125,7.8125,,0,,7.8125,-10,0,3328.125,15.08392496,2.894607,-12.18931796,0,1.588248,0,10,,0,9.375,0.3125,13.7254901960784,69.8,0,38.533,,181.4,93.2,12.5,0,7.8125,7.8125,
23,2024-06-28,04:56:26.54519,2.00588,0,12,0,-12.5,-12.5,-3.125,7.8125,,0,,7.8125,-10,0,3414.0625,15.08392496,3.0875808,-11.99634416,0,1.627464,0,10,,0,9.375,0.3125,14.5098039215686,69.8,0,38.533,,181.4,93.2,12.5,0,12.5,9.375,
24,2024-06-28,04:56:26.63889,2.09702,0,13.2,0,-12.5,-12.5,-3.125,9.375,,0,,9.375,32,0,3507.8125,15.08392496,3.0875808,-11.99634416,0,1.627464,0,10,,0,9.375,0,14.5098039215686,69.8,0,38.533,,181.4,93.2,12.5,0,9.375,9.375,
25,2024-06-28,04:56:26.70143,2.16151,0,13.2,0,-12.5,-12.5,-3.125,9.375,,0,,9.375,35,0,3500,15.08392496,3.0875808,-11.99634416,0,1.607856,0,10,,0,9.375,0,14.5098039215686,69.8,0,38.533,,181.4,93.2,12.5,0,6.25,7.8125,
26,2024-06-28,04:56:26.77952,2.23068,0,13.6,0,-12.5,-12.5,-3.125,7.8125,,0,,9.375,-10,0,3460.9375,15.08392496,3.0875808,-11.99634416,0,1.607856,0,10,,0,9.375,0,14.5098039215686,69.8,0,38.533,,181.4,93.2,12.5,0,7.8125,9.375,
27,2024-06-28,04:56:26.82640,2.28395,0,13.6,0,-12.5,-12.5,-3.125,9.375,,0,,9.375,-10,0,3468.75,15.08392496,3.0875808,-11.99634416,0,1.607856,0,10,,0,9.375,0,14.5098039215686,69.8,0,38.533,,181.4,93.2,12.5,0,10.9375,9.375,
28,2024-06-28,04:56:26.85764,2.31634,0,14.6,0,-12.5,-12.5,-3.125,9.375,,0,,9.375,-10,0,3468.75,15.08392496,3.0875808,-11.99634416,0,1.607856,0,10,,0,9.375,0,14.5098039215686,69.8,0,38.533,,181.4,93.2,12.5,0,12.5,9.375,
29,2024-06-28,04:56:26.92015,2.3739,0,14.6,0,-12.5,-12.5,-3.125,9.375,,0,,9.375,-10,0,3460.9375,15.08392496,3.0875808,-11.99634416,0,1.647072,0,10,,0,9.375,0,14.5098039215686,69.8,0,38.533,,181.4,93.2,12.5,0,10.9375,9.375,
30,2024-06-28,04:56:26.96702,2.42156,0,14.6,0,-12.5,-12.5,-3.125,9.375,,0,,9.375,-10,0,3453.125,15.08392496,3.0875808,-11.99634416,0,1.647072,0,10,,0,9.375,0.15625,14.5098039215686,69.8,0,38.533,,181.4,93.2,12.5,0,9.375,9.375,
31,2024-06-28,04:56:27.01390,2.47517,0,14.6,0,-12.5,-12.5,-3.125,9.375,,0,,9.375,-10,0,3460.9375,15.08392496,3.0875808,-11.99634416,0,1.588248,0,10,,0,9.375,0.15625,14.5098039215686,69.8,0,38.533,,181.4,93.2,12.5,0,10.9375,9.375,
32,2024-06-28,04:56:27.06077,2.51894,0,18.5,0,-12.5,-12.5,-3.125,9.375,,0,,9.375,-10,0,3445.3125,15.08392496,3.0875808,-11.99634416,0,1.588248,0,10,,0,9.375,0.15625,14.5098039215686,69.8,0,38.533,,181.4,93.2,12.5,0,9.375,9.375,
33,2024-06-28,04:56:27.12327,2.57235,0,18.5,0,-12.5,-12.5,-3.125,9.375,,0,,9.375,-10,0,3437.5,15.08392496,3.0875808,-11.99634416,0,1.686288,0,10,,0,9.375,0.15625,14.5098039215686,69.8,0,37.29,,181.4,93.2,12.5,0,9.375,9.375,
34,2024-06-28,04:56:27.15452,2.60708,0,18.5,0,-12.5,-12.5,-3.125,9.375,,0,,9.375,-10,0,3421.875,15.08392496,3.0875808,-11.99634416,0,1.686288,0,10,,0,9.375,0.15625,14.5098039215686,69.8,0,37.29,,181.4,93.2,12.5,0,9.375,9.375,
35,2024-06-28,04:56:27.18578,2.64193,0,18.5,0,-12.5,-12.5,-3.125,9.375,,0,,9.375,-10,0,3421.875,15.08392496,3.0875808,-11.99634416,0,1.66668,0,10,,0,9.375,0.15625,14.5098039215686,69.8,0,37.29,,181.4,93.2,12.5,0,9.375,9.375,
36,2024-06-28,04:56:27.20140,2.66185,0,18.5,0,-12.5,-12.5,-3.125,9.375,,0,,9.375,-10,0,3421.875,15.08392496,3.0875808,-11.99634416,0,1.66668,0,10,,0,9.375,0.15625,14.5098039215686,69.8,0,37.29,,181.4,93.2,12.5,0,7.8125,9.375,
37,2024-06-28,04:56:27.26390,2.71593,0,18.5,0,-12.5,-12.5,-3.125,9.375,,0,,9.375,-10,0,3421.875,15.08392496,3.1840677,-11.89985726,0,1.725504,0,10,,0,9.375,0.15625,14.5098039215686,69.8,0,37.29,,181.4,93.2,12.5,0,10.9375,9.375,
38,2024-06-28,04:56:27.29515,2.75776,0,18.5,0,-12.5,-12.5,-3.125,9.375,,0,,9.375,-10,0,3406.25,15.08392496,3.1840677,-11.89985726,0,1.725504,0,10,,0,9.375,0.15625,15.6862745098039,69.8,0,37.29,,181.4,93.2,14.0625,0,14.0625,10.9375,
39,2024-06-28,04:56:27.43578,2.89283,0,18.5,0,-12.5,-12.5,-3.125,10.9375,,0,,12.5,-10,0,3398.4375,15.08392496,3.9559629,-11.12796206,0,1.901976,0,10,,0,9.375,0.15625,15.6862745098039,69.8,0,37.29,,181.4,93.2,18.75,0,17.1875,15.625,
40,2024-06-28,04:56:27.52957,2.98271,0,18.5,0,-12.5,-12.5,-3.125,15.625,,1.4,,15.625,15,0,3398.4375,15.08392496,3.9559629,-11.12796206,0,1.901976,3.96484375,10,,0,9.53125,0.15625,15.6862745098039,69.8,0,37.29,,181.4,93.2,18.75,0,18.75,17.1875,
41,2024-06-28,04:56:27.65455,3.10329,0,18.5,0,-12.5,-12.5,-3.125,17.1875,,1.5,,17.1875,40,0,3390.625,15.08392496,4.1489367,-10.93498826,0,1.901976,4.23828125,10,,0,9.53125,0.15625,16.8627450980392,69.8,0,37.29,,181.4,93.2,20.3125,0,18.75,17.1875,
42,2024-06-28,04:56:27.73267,3.19431,0,18.5,0,-12.5,-12.5,-3.125,18.75,,1.4,,18.75,40,0,3382.8125,15.08392496,4.1489367,-10.93498826,0,1.901976,3.94661458333333,10,,0,9.375,0.15625,16.8627450980392,69.8,0,37.29,,181.4,93.2,20.3125,0,18.75,18.75,
43,2024-06-28,04:56:27.82640,3.28106,0,18.5,0,-3.125,-12.5,-3.125,18.75,,1.4,,18.75,40,0,3375,15.08392496,4.2454236,-10.83850136,0,1.901976,3.9375,10,,0,9.375,0.15625,16.8627450980392,69.8,0,37.29,,181.4,93.2,20.3125,0,18.75,18.75,
44,2024-06-28,04:56:27.85765,3.31108,0,18.5,0,-3.125,-12.5,-3.125,18.75,,1.4,,18.75,40,0,3375,15.08392496,4.2454236,-10.83850136,0,1.901976,3.9375,10,,0,9.53125,0.15625,16.8627450980392,69.8,0,37.29,,181.4,93.2,20.3125,0,18.75,18.75,
45,2024-06-28,04:56:27.93580,3.38502,0,18.5,0,-3.125,-12.5,-3.125,18.75,,1.4,,18.75,40,0,3367.1875,15.08392496,4.3419105,-10.74201446,0,1.901976,3.92838541666667,10,,0,9.53125,0.15625,16.8627450980392,69.8,0,37.29,,181.4,93.2,20.3125,0,21.875,18.75,
46,2024-06-28,04:56:28.04517,3.49445,0,15.2,0,-3.125,-12.5,-3.125,20.3125,,1.5,,21.875,40,0,3359.375,15.08392496,4.3419105,-10.74201446,0,1.901976,4.19921875,12.5,,-2.5,9.53125,0.15625,16.8627450980392,69.8,0,37.29,,181.4,93.2,26.5625,0,25,23.4375,
47,2024-06-28,04:56:28.15454,3.60589,0,15.2,0,-3.125,-12.5,-3.125,25,,1.6,,25,40,0,3375,15.08392496,5.4997533,-9.58417166,0,2.098056,4.5,12.5,,-2.5,9.53125,0.15625,19.6078431372549,69.8,0,37.29,,181.4,93.2,29.6875,0,29.6875,28.125,
48,2024-06-28,04:56:28.24831,3.70975,0,12.6,0,-3.125,-12.5,-3.125,28.125,,1.7,,28.125,40,0,3351.5625,15.08392496,5.4997533,-9.58417166,0,2.098056,4.748046875,15,,-5,9.6875,-1.09375,19.6078431372549,69.8,0,37.29,,181.4,93.2,32.8125,0,34.375,31.25,
49,2024-06-28,04:56:28.37327,3.83198,0,14.9,0,-3.125,-12.5,-3.125,31.25,,1.8,,32.8125,40,0,3375,15.08392496,6.9470568,-8.13686816,0,2.274528,5.0625,15,,-5,9.6875,-1.09375,19.6078431372549,69.8,0,37.29,,181.4,93.2,37.5,0,37.5,35.9375,
50,2024-06-28,04:56:28.46702,3.93066,0,14.9,0,-3.125,-12.5,-3.125,35.9375,,1.9,,35.9375,40,0,3359.375,15.08392496,6.9470568,-8.13686816,0,2.274528,5.31901041666667,17.5,,-8.75,9.53125,-5.9375,23.1372549019608,69.8,0,37.29,,181.4,93.2,40.625,0,43.75,39.0625,
51,2024-06-28,04:56:28.60764,4.05646,0,13,0,-3.125,-12.5,-3.125,40.625,,2.1,,43.75,40,0,3375,15.08392496,9.3592293,-5.72469566,0,2.64708,5.90625,17.5,,-8.75,9.53125,-5.9375,23.1372549019608,69.8,0,37.29,,181.4,93.2,60.9375,0,82.8125,60.9375,
52,2024-06-28,04:56:28.71702,4.17645,0,12.9,0,-3.125,-12.5,-3.125,67.1875,,3,,73.4375,35,0,3359.375,15.08392496,9.3592293,-5.72469566,0,2.64708,8.3984375,30,,-20,17.65625,-15.78125,23.1372549019608,69.8,0,37.29,,181.4,93.2,89.0625,0,90.625,82.8125,
53,2024-06-28,04:56:28.85765,4.3171,0,13,0,-3.125,-12.5,-3.125,82.8125,,3.1,,87.5,31,0,3445.3125,15.08392496,14.8589826,-0.22494236,14,3.078456,8.900390625,30,,-20,17.65625,-15.78125,49.8039215686275,69.8,0,37.29,,181.4,93.2,96.875,0,106.25,96.875,
54,2024-06-28,04:56:28.98265,4.44347,0,10.4,0,-3.125,-12.5,-3.125,96.875,,3.7,,100,26,0,3492.1875,15.08392496,14.8589826,-0.22494236,14,3.078456,10.767578125,33.125,,-19.375,35,-19.53125,49.8039215686275,69.8,0,37.29,,181.4,93.2,106.25,0,125,106.25,
55,2024-06-28,04:56:29.13891,4.59568,0,10.4,0,0,-12.5,-3.125,107.8125,,4.1,,107.8125,24,0,3531.25,15.08392496,17.4641289,2.38020394,32.5,3.156888,12.0651041666667,33.125,,-19.375,35,-19.53125,49.8039215686275,69.8,0,37.29,,181.4,93.2,115.625,0,139.0625,115.625,
56,2024-06-28,04:56:29.24827,4.69868,0,10.6,0,0,-12.5,-3.125,117.1875,,4.6,,118.75,22,0,3570.3125,15.08392496,17.4641289,2.38020394,32.5,3.156888,13.6861979166667,33.125,,-16.875,34.84375,-19.375,78.0392156862745,69.8,0,37.29,,181.4,93.2,125,0,151.5625,125,
57,2024-06-28,04:56:29.38890,4.84294,0,10.7,0,0,-12.5,-3.125,125,,5,,128.125,21,0,3625,15.08392496,20.262249,5.17832404,46,3.313752,15.1041666666667,33.125,,-16.875,34.84375,-19.375,78.0392156862745,69.8,0,39.776,,181.4,93.2,137.5,0,168.75,137.5,
58,2024-06-28,04:56:29.49830,4.94957,0,10.8,0,0,-12.5,-3.125,137.5,,5.4,,140.625,19,0,3710.9375,15.08392496,20.262249,5.17832404,46,3.313752,16.69921875,33.125,,-10.625,34.53125,-17.1875,78.0392156862745,69.8,0,39.776,,181.4,93.2,146.875,0,182.8125,146.875,
59,2024-06-28,04:56:29.63890,5.08959,0,10.9,0,0,-12.5,-3.125,148.4375,,5.8,,151.5625,16,0,3773.4375,15.08392496,23.9287512,8.84482624,49.5,3.705912,18.23828125,33.125,,-10.625,34.53125,-17.1875,85.4901960784314,69.8,8,39.776,,181.4,93.2,162.5,0,204.6875,162.5,
60,2024-06-28,04:56:29.73265,5.19312,0,10.9,0,0,-12.5,-3.125,162.5,,6.2,,165.625,11,0,3859.375,15.08392496,23.9287512,8.84482624,49.5,3.705912,19.9401041666667,33.125,,-5.625,35,-14.375,85.4901960784314,69.8,8,39.776,,181.4,93.2,178.125,0,225,178.125,
61,2024-06-28,04:56:29.87327,5.33695,0,11.3,0,0,-12.5,-3.125,178.125,,6.7,,182.8125,9,0,3945.3125,15.08392496,28.8495831,13.76565814,50.5,4.058856,22.0279947916667,33.125,,-5.625,35,-14.375,85.4901960784314,69.8,8,39.776,,181.4,93.2,200,0,253.125,200,
62,2024-06-28,04:56:29.98265,5.43907,0,11.7,0,0,-12.5,-3.125,201.5625,,7.6,,206.25,9,0,4062.5,15.08392496,28.8495831,13.76565814,50.5,4.058856,25.7291666666667,33.125,,0,34.84375,-7.8125,85.4901960784314,69.8,8,39.776,,181.4,93.2,217.1875,0,250,217.1875,
63,2024-06-28,04:56:30.10765,5.57167,0,11.9,0,0,-12.5,-3.125,217.1875,,8.3,,221.875,9,0,4117.1875,15.08392496,33.4809543,18.39702934,51,4.039248,28.4772135416667,33.125,,0,34.84375,-7.8125,85.4901960784314,69.8,8,43.505,,181.4,93.2,237.5,0,270.3125,237.5,
64,2024-06-28,04:56:30.21702,5.67064,0,11.6,0,0,-12.5,-3.125,239.0625,,8.9,,242.1875,9,0,4234.375,15.08392496,33.4809543,18.39702934,51,4.039248,31.4049479166667,33.125,,0,34.84375,-6.09375,85.4901960784314,69.8,8,43.505,,181.4,93.2,248.4375,0,253.125,246.875,
65,2024-06-28,04:56:30.34202,5.79384,0,11.6,0,0,-12.5,-3.125,246.875,,9.2,,251.5625,9,0,4296.875,15.08392496,36.5685351,21.48461014,51.5,4.254936,32.9427083333333,33.125,,0,34.84375,-6.09375,85.0980392156863,69.8,8,43.505,,181.4,93.2,260.9375,0,260.9375,259.375,
66,2024-06-28,04:56:30.43581,5.8924,0,11.3,0,0,-12.5,-3.125,259.375,,9.6,,264.0625,9,0,4421.875,15.08392496,36.5685351,21.48461014,51.5,4.254936,35.375,33.125,,0,34.84375,-5.9375,85.0980392156863,69.8,8,43.505,,181.4,93.2,270.3125,0,275,267.1875,
67,2024-06-28,04:56:30.56081,6.01491,0,11.1,0,0,-12.5,-3.125,267.1875,,9.7,,264.0625,9,0,4539.0625,15.08392496,38.4017862,23.31786124,52,4.235328,36.6907552083333,33.125,,0,34.84375,-5.9375,85.0980392156863,69.8,8,43.505,,181.4,93.2,278.125,0,273.4375,268.75,
68,2024-06-28,04:56:30.65452,6.10572,0,11.1,0,0,-12.5,-3.125,268.75,,9.8,,267.1875,9,0,4648.4375,15.08392496,38.4017862,23.31786124,52,4.235328,37.9622395833333,33.125,,0,34.6875,-4.6875,84.7058823529412,69.8,7.5,43.505,,181.4,93.2,282.8125,0,264.0625,265.625,
69,2024-06-28,04:56:30.79515,6.2511,0,10.9,0,0,-12.5,-3.125,267.1875,,9.7,,268.75,8,0,4718.75,15.08392496,39.559629,24.47570404,52.5,4.333368,38.1432291666667,33.125,,0,34.6875,-4.6875,84.7058823529412,69.8,7.5,50.963,,181.4,91.4,289.0625,0,273.4375,270.3125,
70,2024-06-28,04:56:30.90452,6.3553,0,11.2,0,0,-12.5,-3.125,268.75,,9.7,,267.1875,10,0,4875,15.08392496,39.559629,24.47570404,52.5,4.333368,39.40625,33.125,,0,34.53125,-3.125,84.7058823529412,69.8,7.5,50.963,,181.4,91.4,292.1875,0,264.0625,265.625,
71,2024-06-28,04:56:31.04514,6.4965,0,11.1,0,0,-12.5,-3.125,270.3125,,9.6,,265.625,10,0,4984.375,15.08392496,40.0420635,24.95813854,53,4.392192,39.875,33.125,,0,34.53125,-3.125,84.7058823529412,69.8,7.5,50.963,,181.4,91.4,295.3125,0,264.0625,268.75,
72,2024-06-28,04:56:31.10764,6.56584,0,11.1,0,0,-12.5,-3.125,268.75,,9.6,,265.625,10,0,5085.9375,15.08392496,40.0420635,24.95813854,53,4.392192,40.6875,33.125,,0,34.53125,-2.5,84.7058823529412,69.8,7.5,50.963,,181.4,91.4,296.875,0,262.5,270.3125,
73,2024-06-28,04:56:31.21707,6.673,0,11.2,0,0,-12.5,-3.125,270.3125,,9.6,,270.3125,10,0,5179.6875,15.08392496,40.0420635,24.95813854,54,4.372584,41.4375,33.125,,0,34.53125,-2.5,84.7058823529412,69.8,7.5,50.963,,181.4,91.4,300,0,276.5625,273.4375,
74,2024-06-28,04:56:31.29514,6.74419,0,11.2,0,0,-12.5,-3.125,273.4375,,9.7,,270.3125,10,0,5265.625,15.08392496,40.0420635,24.95813854,54,4.372584,42.5638020833333,33.125,,0,34.53125,-2.5,84.7058823529412,68,7.5,50.963,,181.4,91.4,301.5625,0,268.75,271.875,
75,2024-06-28,04:56:31.40452,6.86585,0,11.2,0,0,-12.5,-3.125,270.3125,,9.6,,271.875,10,0,5343.75,15.08392496,40.4280111,25.34408614,54,4.451016,42.75,33.125,,0,34.53125,-2.5,84.7058823529412,68,7.5,58.421,,181.4,91.4,304.6875,0,265.625,271.875,
76,2024-06-28,04:56:31.49828,6.96073,0,11,0,0,-12.5,-3.125,270.3125,,9.6,,270.3125,10,2,5445.3125,15.08392496,40.4280111,25.34408614,54,4.451016,43.5625,33.125,,0,34.375,-2.5,84.7058823529412,68,7.5,58.421,,181.4,91.4,306.25,0,279.6875,273.4375,
77,2024-06-28,04:56:31.62328,7.07556,0,11,0,0,-12.5,-3.125,271.875,,9.7,,271.875,10,2,5546.875,15.08392496,40.6209849,25.53705994,54,4.647096,44.8372395833333,33.125,,0,34.375,-2.5,84.7058823529412,68,6.5,58.421,,181.4,91.4,307.8125,0,271.875,270.3125,
78,2024-06-28,04:56:31.71707,7.17485,0,11.1,0,0,-12.5,-3.125,271.875,,9.6,,270.3125,10,2,5664.0625,15.08392496,40.6209849,25.53705994,54,4.647096,45.3125,30.625,,0,34.375,-2.8125,84.7058823529412,68,6.5,58.421,,181.4,91.4,307.8125,0,271.875,271.875,
79,2024-06-28,04:56:31.84202,7.29264,0,11.1,0,0,-12.5,-3.125,271.875,,9.5,,273.4375,10,2,5742.1875,15.08392496,40.7174718,25.63354684,54.5,4.588272,45.458984375,30.625,,0,34.375,-2.8125,84.7058823529412,68,6.5,58.421,,181.4,91.4,309.375,0,264.0625,270.3125,
80,2024-06-28,04:56:31.96703,7.42483,0,11.2,0,0,-12.5,-3.125,270.3125,,9.4,,270.3125,10,1,5843.75,15.08392496,40.7174718,25.63354684,54.5,4.588272,45.7760416666667,27.5,,0,34.0625,-2.5,84.3137254901961,68,5.5,58.421,,181.4,91.4,310.9375,0,268.75,267.1875,
81,2024-06-28,04:56:32.09204,7.55216,0,11.2,0,0,-12.5,-3.125,267.1875,,9.3,,267.1875,11,1,5984.375,15.08392496,40.3315242,25.24759924,54.5,4.60788,46.37890625,27.5,,0,34.0625,-2.5,84.3137254901961,68,5.5,65.879,,181.4,89.6,310.9375,0,265.625,265.625,
82,2024-06-28,04:56:32.15452,7.61571,0,11.2,0,0,-12.5,-3.125,267.1875,,9.3,,267.1875,11,1,6078.125,15.08392496,40.3315242,25.24759924,54.5,4.60788,47.10546875,25.625,,0,30.9375,-2.5,84.3137254901961,68,5.5,65.879,,181.4,89.6,310.9375,0,262.5,265.625,
83,2024-06-28,04:56:32.26390,7.71411,0,11.1,0,0,-12.5,-3.125,267.1875,,9.3,,267.1875,11,1,6164.0625,15.08392496,40.1385504,25.05462544,55,4.686312,47.771484375,25.625,,0,30.9375,-2.5,84.3137254901961,68,5.5,65.879,,181.4,89.6,310.9375,0,256.25,264.0625,
84,2024-06-28,04:56:32.35765,7.81372,0,11.1,0,0,-12.5,-3.125,264.0625,,9.2,,264.0625,11,1,6257.8125,15.08392496,40.1385504,25.05462544,55,4.686312,47.9765625,23.125,,0,25.625,-2.5,84.3137254901961,68,5.5,65.879,,181.4,89.6,309.375,0,268.75,264.0625,
85,2024-06-28,04:56:32.48265,7.93996,0,11.2,0,0,-12.5,-3.125,264.0625,,9.1,,262.5,11,1,6351.5625,15.08392496,39.8490897,24.76516474,55.5,4.70592,48.166015625,23.125,,0,25.625,-2.5,84.3137254901961,68,5.5,65.879,,181.4,89.6,309.375,0,260.9375,264.0625,
86,2024-06-28,04:56:32.56077,8.02069,0,11.2,0,0,-12.5,-3.125,264.0625,,9.2,,262.5,11,1,6445.3125,15.08392496,39.8490897,24.76516474,55.5,4.70592,49.4140625,21.25,,0,21.71875,-2.34375,84.3137254901961,68,5.5,65.879,,181.4,89.6,309.375,0,267.1875,262.5,
87,2024-06-28,04:56:32.67015,8.1332,0,11.2,0,0,-12.5,-3.125,262.5,,9.1,,264.0625,11,1,6531.25,15.08392496,39.8490897,24.76516474,56.5,4.764744,49.5286458333333,21.25,,0,21.71875,-2.34375,84.3137254901961,68,5.5,65.879,,181.4,89.6,310.9375,0,260.9375,264.0625,
88,2024-06-28,04:56:32.79515,8.24744,0,11.2,0,0,-12.5,-3.125,264.0625,,9.1,,262.5,12,2,6640.625,15.08392496,39.8490897,24.76516474,56.5,4.764744,50.3580729166667,18.75,,0,18.28125,-2.1875,84.3137254901961,68,5.5,65.879,,181.4,89.6,307.8125,0,256.25,260.9375,
89,2024-06-28,04:56:32.92014,8.37671,0,10.9,0,0,-12.5,-3.125,260.9375,,9,,260.9375,12,2,6750,15.08392496,39.559629,24.47570404,57,4.764744,50.625,18.75,,0,18.28125,-2.1875,84.7058823529412,68,5.5,65.879,,181.4,89.6,306.25,0,251.5625,259.375,
90,2024-06-28,04:56:33.02952,8.48132,0,11,0,0,-12.5,-3.125,257.8125,,9,,259.375,12,2,6851.5625,15.08392496,39.559629,24.47570404,57,4.764744,51.38671875,16.25,,0,15,-2.8125,84.7058823529412,68,5.5,73.337,,183.2,87.8,304.6875,0,259.375,260.9375,
91,2024-06-28,04:56:33.13890,8.59669,0,11,0,0,-12.5,-3.125,260.9375,,9,,259.375,13,2,6960.9375,15.08392496,39.4631421,24.37921714,58.5,4.823568,52.20703125,16.25,,0,15,-2.8125,84.7058823529412,68,5.5,73.337,,183.2,87.8,306.25,0,260.9375,260.9375,
92,2024-06-28,04:56:33.21702,8.67645,0,11,0,0,-12.5,-3.125,260.9375,,9,,260.9375,13,2,7023.4375,15.08392496,39.4631421,24.37921714,58.5,4.823568,52.67578125,14.375,,0,12.8125,-2.96875,84.7058823529412,68,6,73.337,,183.2,87.8,307.8125,0,259.375,259.375,
93,2024-06-28,04:56:33.35765,8.81336,0,10.9,0,0,-12.5,-3.125,259.375,,9,,260.9375,12,4,7117.1875,15.08392496,39.8490897,24.76516474,59,4.843176,53.37890625,14.375,,0,12.8125,-2.96875,84.7058823529412,68,6,73.337,,183.2,87.8,307.8125,0,260.9375,259.375,
94,2024-06-28,04:56:33.43580,8.89197,0,10.9,0,0,-12.5,-3.125,259.375,,9,,259.375,12,4,7226.5625,15.08392496,39.8490897,24.76516474,59,4.843176,54.19921875,12.5,,0,11.25,-2.5,84.7058823529412,68,6,73.337,,183.2,87.8,307.8125,0,264.0625,259.375,
95,2024-06-28,04:56:33.56077,9.02084,0,11,0,0,-12.5,-3.125,259.375,,8.9,,259.375,12,3,7304.6875,15.08392496,39.559629,24.47570404,59.5,4.862784,54.1764322916667,12.5,,0,11.25,-2.5,85.0980392156863,68,6,73.337,,183.2,87.8,306.25,0,259.375,257.8125,
96,2024-06-28,04:56:33.68580,9.14156,0,10.8,0,0,-12.5,-3.125,256.25,,8.8,,257.8125,13,3,7414.0625,15.08392496,39.559629,24.47570404,59.5,4.862784,54.3697916666667,10.625,,0,10,-2.5,85.0980392156863,68,6,80.795,,183.2,87.8,287.5,259.375,250,260.9375,
97,2024-06-28,04:56:33.82640,9.27649,0,11,0,0,-12.5,-3.125,260.9375,,8.9,,221.875,13,3,7390.625,15.08392496,20.9376573,5.85373234,0,3.607872,54.8138020833333,10.625,,0,10,-2.5,85.0980392156863,68,6,80.795,,183.2,87.8,76.5625,68.75,29.6875,68.75,